TIGU_MURES/VIDRASA current weather conditions

sailwx.info

Wind from 260 at 2 knots

Air temperature -2.0° C
Visibility: greater than 1.8 NM
Dewpoint -3.0° C
Present weather: Mist.

Last reported at 2019-Jan-24 05:30 UTC.
Time now 2019-Jan-24 07:00 UTC

Location: N 46°28' E 024°25'.
View on Google Maps.

See reports from other nearby stations

  
Tides and Currents Weather Stations Pressure Air Temp Water Temp Dewpoint Dewpoint Depression Visibility Wind Speed Wind Dir Waves Ship Positions
date/time (UTC)wind fromknots sea level pressurealtimeterstation pressurevisibilityair tempwater tempwave heightnotes
2019-Jan-24 05:30 260 2 1.8-2.0 Mist.
2019-Jan-24 05:00 240 6 1.8-3.0 Mist.
2019-Jan-24 04:30 250 4 1.5-3.0 Mist.
2019-Jan-24 04:00 230 4 1.7-2.0 Mist.
2019-Jan-24 03:30 240 5 1.5-2.0
2019-Jan-24 03:00 240 4 2.3-2.0
2019-Jan-24 02:30 230 4 1.9-2.0 Light freezing drizzle.
2019-Jan-24 02:00 250 1 1.8-2.0 Light freezing drizzle.
2019-Jan-24 01:30 240 4 1.4-2.0 Light freezing rain.
2019-Jan-24 01:00 240 5 1.0-2.0
2019-Jan-24 00:30 240 6 2.0-3.0
2019-Jan-24 00:00 240 4 0.4-3.0 Fog.
2019-Jan-23 23:30 240 4 0.2-2.0 Fog.
2019-Jan-23 23:00 330 2 0.4-2.0 Fog.
2019-Jan-23 22:30 320 1 0.2-2.0 Fog.
2019-Jan-23 22:00 350 2 0.2-3.0 Snow grains.
2019-Jan-23 21:30 350 2 0.2-3.0 Snow grains.
2019-Jan-23 21:00 310 2 0.2-2.0 Snow grains.
2019-Jan-23 20:30 310 1 0.2-2.0 Fog.
2019-Jan-23 20:00 300 1 0.2-2.0 Fog.
2019-Jan-23 19:30 270 2 0.2-2.0 Snow grains.
2019-Jan-23 19:00 260 4 0.1-1.0 Snow grains.
2019-Jan-23 18:30 240 4 0.1-1.0 Snow grains.
2019-Jan-23 18:00 240 6 0.1-2.0 Fog.
2019-Jan-23 17:30 260 4 0.1-2.0 Fog.
2019-Jan-23 17:00 250 4 0.1-3.0 Fog.
2019-Jan-23 16:30 250 6 0.1-3.0 Fog.
2019-Jan-23 16:00 240 4 0.9-2.0 Mist.
2019-Jan-23 15:30 240 4 1.3-1.0 Mist.
2019-Jan-23 15:00 250 4 1.2-0.0 Mist.
2019-Jan-23 14:30 230 5 1.7 1.0 Mist.
2019-Jan-23 14:00 220 1 3.8 4.0
2019-Jan-23 13:30 110 2 3.2 4.0
2019-Jan-23 13:00 080 5 4.3 4.0
2019-Jan-23 12:30 080 2 3.2 4.0
2019-Jan-23 12:00 070 4 2.7 4.0 Mist.
2019-Jan-23 11:30 090 1 2.2 3.0 Mist.
2019-Jan-23 11:00 090 4 2.1 3.0 Mist.
2019-Jan-23 10:30 080 4 1.5 2.0 Mist.
2019-Jan-23 10:00 070 4 1.2 1.0 Mist.
2019-Jan-23 09:30 090 4 1.0 1.0 Mist.
2019-Jan-23 09:00 070 4 0.8 1.0 Mist.
2019-Jan-23 08:30 060 4 0.8 1.0 Mist.
2019-Jan-23 08:00 100 2 0.5-0.0 Mist.
2019-Jan-23 07:30 0.4-0.0 Fog.
2019-Jan-23 07:00 0.3-0.0
2019-Jan-23 06:30 240 1 0.4-1.0 Fog.
2019-Jan-23 06:00 0.4-1.0 Fog.
2019-Jan-23 05:30 0.6-1.0 Fog.
2019-Jan-23 05:00 080 1 0.8-1.0 Fog.
2019-Jan-23 04:30 0.9-0.0 Fog.
2019-Jan-23 04:00 250 1 1.1-0.0
2019-Jan-23 03:30 220 1 1.4-0.0 Light snow.
2019-Jan-23 03:00 080 2 1.4-0.0 Light rain snow.
2019-Jan-23 02:30 100 4 1.5-0.0 Light rain snow.
2019-Jan-23 02:00 110 2 1.0-0.0 Light snow.
2019-Jan-23 01:30 0.8-1.0 Light snow.
2019-Jan-23 01:00 0.6-1.0 Light snow.
2019-Jan-23 00:30 0.9-1.0 Fog.
2019-Jan-23 00:00 0.9-1.0 Fog.
2019-Jan-22 23:30 0.8-1.0 Fog.
2019-Jan-22 23:00 1.0-1.0 Fog.
2019-Jan-22 22:30 310 1 1.1-1.0
2019-Jan-22 22:00 280 1 1.0-1.0 Snow grains.
2019-Jan-22 21:30 230 1 0.9-1.0 Fog.
2019-Jan-22 21:00 220 2 0.9-1.0 Light snow.
2019-Jan-22 20:30 240 1 0.8-1.0 Snow grains.
2019-Jan-22 20:00 250 1 0.6-1.0 Light snow.
2019-Jan-22 19:30 230 0 0.6-0.0 Light rain snow.
2019-Jan-22 19:00 320 1 1.0-0.0 Fog.
2019-Jan-22 18:30 100 1 1.2-0.0 Light snow showers.
2019-Jan-22 18:00 1.1-0.0 Light snow. Mist.
2019-Jan-22 17:30 090 2 1.1-0.0 Light snow. Mist.
2019-Jan-22 17:00 050 2 1.0-0.0 Light snow. Mist.
2019-Jan-22 16:30 040 2 1.0-0.0 Light snow. Mist.
2019-Jan-22 16:00 060 2 1.0-0.0 Light snow. Mist.
2019-Jan-22 15:30 070 4 0.8-0.0 Light snow. Mist.
2019-Jan-22 15:00 060 4 0.7-0.0 Light snow. Mist.
2019-Jan-22 14:30 060 2 0.5-0.0 Snow. Mist.
2019-Jan-22 14:00 070 1 0.5-0.0 Snow. Mist.
2019-Jan-22 13:30 090 1 0.6-0.0 Light drizzle snow. Mist.
2019-Jan-22 13:00 0.6-0.0 Light drizzle snow. Mist.
2019-Jan-22 12:30 0.8-0.0 Light drizzle snow. Mist.
2019-Jan-22 12:00 0.8-1.0 Light drizzle snow. Mist.
2019-Jan-22 11:30 0.9-0.0 Light snow. Mist.
2019-Jan-22 11:00 090 1 0.9-1.0 Light snow. Mist.
2019-Jan-22 10:30 080 4 1.1-1.0 Light snow. Mist.
2019-Jan-22 10:00 080 4 1.0-2.0 Light snow. Mist.
2019-Jan-22 09:30 080 4 1.0-2.0 Light snow. Mist.
2019-Jan-22 09:00 070 4 1.0-2.0 Light snow. Mist.
2019-Jan-22 08:30 080 4 1.0-3.0 Light snow. Mist.
2019-Jan-22 08:00 070 5 1.1-3.0 Light snow. Mist.
2019-Jan-22 07:30 090 5 1.1-3.0 Light snow. Mist.
2019-Jan-22 07:00 090 5 1.0-3.0 Snow. Mist.